DAH2201 EBBR-DAAG

Flight info

Callsign DAH2201
Flight time 2h 23m
Altitude 33000
Route CIV N872 LESDO DCT KOVIN DCT DUCRA/N0460F370 UM728 RESMI UN857 DISAK DCT DIRMO DCT ETAMO DCT ADEKA DCT MOKDI DCT MEN DCT BADAM DCT KANIG DCT KENAS N855 BUYAH
Aircraft B738/M-SDE2E3FGHIRWXY/LB1

Departure

Time 2026-05-06 14:04
Airport Brussels Airport (EBBR)

Arrival

Time 2026-05-06 16:28
Airport Houari Boumediene Airport (DAAG)
Time Latitude Longitude Altitude Speed Heading
2026-05-06 13:46 50.90176 4.45759 138 ft 2 kts 245°
2026-05-06 13:48 50.90173 4.45747 138 ft 2 kts 245°
2026-05-06 13:48 50.90161 4.45706 139 ft 6 kts 245°
2026-05-06 13:49 50.90139 4.45630 139 ft 10 kts 245°
2026-05-06 13:49 50.90118 4.45560 140 ft 5 kts 245°
2026-05-06 13:49 50.90093 4.45521 140 ft 5 kts 206°
2026-05-06 13:49 50.90061 4.45533 140 ft 5 kts 154°
2026-05-06 13:50 50.90034 4.45553 140 ft 4 kts 155°
2026-05-06 13:50 50.90014 4.45568 141 ft 2 kts 155°
2026-05-06 13:50 50.90003 4.45575 141 ft 2 kts 155°
2026-05-06 13:50 50.90002 4.45576 141 ft 0 kts 155°
2026-05-06 13:51 50.89998 4.45579 141 ft 4 kts 155°
2026-05-06 13:51 50.89950 4.45614 140 ft 9 kts 155°
2026-05-06 13:51 50.89891 4.45655 140 ft 9 kts 160°
2026-05-06 13:52 50.89827 4.45664 141 ft 9 kts 178°
2026-05-06 13:52 50.89774 4.45697 140 ft 8 kts 141°
2026-05-06 13:52 50.89771 4.45775 140 ft 8 kts 64°
2026-05-06 13:52 50.89798 4.45866 139 ft 11 kts 65°
2026-05-06 13:53 50.89836 4.45998 138 ft 16 kts 65°
2026-05-06 13:53 50.89885 4.46169 136 ft 18 kts 65°
2026-05-06 13:53 50.89935 4.46343 134 ft 17 kts 65°
2026-05-06 13:53 50.89985 4.46512 132 ft 17 kts 65°
2026-05-06 13:54 50.90032 4.46675 126 ft 16 kts 66°
2026-05-06 13:54 50.90078 4.46838 124 ft 17 kts 66°
2026-05-06 13:54 50.90131 4.47020 123 ft 20 kts 65°
2026-05-06 13:54 50.90192 4.47228 123 ft 22 kts 65°
2026-05-06 13:55 50.90255 4.47446 121 ft 22 kts 65°
2026-05-06 13:55 50.90317 4.47658 119 ft 21 kts 66°
2026-05-06 13:55 50.90375 4.47865 119 ft 20 kts 65°
2026-05-06 13:55 50.90433 4.48066 116 ft 20 kts 65°
2026-05-06 13:56 50.90489 4.48260 120 ft 19 kts 65°
2026-05-06 13:56 50.90549 4.48468 119 ft 23 kts 65°
2026-05-06 13:56 50.90623 4.48724 119 ft 27 kts 65°
2026-05-06 13:56 50.90705 4.49007 116 ft 29 kts 65°
2026-05-06 13:57 50.90785 4.49285 117 ft 27 kts 65°
2026-05-06 13:57 50.90842 4.49482 119 ft 14 kts 65°
2026-05-06 13:57 50.90855 4.49604 130 ft 11 kts 114°
2026-05-06 13:57 50.90804 4.49696 121 ft 11 kts 143°
2026-05-06 13:58 50.90726 4.49704 122 ft 13 kts 192°
2026-05-06 13:58 50.90599 4.49651 121 ft 26 kts 194°
2026-05-06 13:58 50.90414 4.49575 122 ft 27 kts 194°
2026-05-06 13:58 50.90235 4.49502 126 ft 26 kts 194°
2026-05-06 13:59 50.90068 4.49434 127 ft 24 kts 194°
2026-05-06 13:59 50.89912 4.49370 135 ft 23 kts 194°
2026-05-06 13:59 50.89761 4.49310 144 ft 22 kts 194°
2026-05-06 13:59 50.89645 4.49263 151 ft 11 kts 194°
2026-05-06 14:00 50.89581 4.49200 155 ft 11 kts 207°
2026-05-06 14:00 50.89512 4.49166 159 ft 11 kts 194°
2026-05-06 14:00 50.89424 4.49132 162 ft 14 kts 194°
2026-05-06 14:00 50.89339 4.49076 165 ft 13 kts 230°
2026-05-06 14:01 50.89306 4.48944 165 ft 13 kts 251°
2026-05-06 14:01 50.89270 4.48787 163 ft 17 kts 252°
2026-05-06 14:01 50.89226 4.48595 163 ft 20 kts 249°
2026-05-06 14:01 50.89175 4.48376 163 ft 22 kts 250°
2026-05-06 14:02 50.89122 4.48145 163 ft 22 kts 248°
2026-05-06 14:02 50.89088 4.48005 163 ft 8 kts 250°
2026-05-06 14:02 50.89070 4.47937 163 ft 7 kts 237°
2026-05-06 14:02 50.89027 4.47899 167 ft 9 kts 185°
2026-05-06 14:03 50.88959 4.47938 174 ft 11 kts 139°
2026-05-06 14:03 50.88935 4.48046 177 ft 10 kts 99°
2026-05-06 14:03 50.88935 4.48159 178 ft 10 kts 78°
2026-05-06 14:03 50.89003 4.48468 178 ft 70 kts 69°
2026-05-06 14:04 50.89276 4.49641 176 ft 154 kts 70°
2026-05-06 14:04 50.89699 4.51469 640 ft 196 kts 69°
2026-05-06 14:04 50.90197 4.53669 1193 ft 231 kts 63°
2026-05-06 14:04 50.91000 4.56060 1897 ft 252 kts 60°
2026-05-06 14:05 50.91823 4.58495 3163 ft 249 kts 60°
2026-05-06 14:05 50.92632 4.60927 4173 ft 251 kts 60°
2026-05-06 14:05 50.93455 4.63412 4982 ft 258 kts 61°
2026-05-06 14:05 50.94165 4.66057 5570 ft 263 kts 70°
2026-05-06 14:06 50.94693 4.68839 5925 ft 266 kts 72°
2026-05-06 14:06 50.95219 4.71681 6667 ft 270 kts 72°
2026-05-06 14:06 50.95633 4.74613 7501 ft 277 kts 88°
2026-05-06 14:06 50.95222 4.77602 8340 ft 283 kts 116°
2026-05-06 14:07 50.93963 4.79998 9135 ft 288 kts 143°
2026-05-06 14:07 50.92176 4.81471 9923 ft 292 kts 158°
2026-05-06 14:07 50.90248 4.82608 10450 ft 308 kts 167°
2026-05-06 14:07 50.88025 4.82589 10626 ft 331 kts 197°
2026-05-06 14:08 50.85959 4.80801 10818 ft 352 kts 224°
2026-05-06 14:08 50.84539 4.77565 11165 ft 367 kts 245°
2026-05-06 14:08 50.83494 4.73841 11812 ft 372 kts 247°
2026-05-06 14:08 50.82493 4.70061 12615 ft 373 kts 247°
2026-05-06 14:09 50.81499 4.66320 13355 ft 375 kts 247°
2026-05-06 14:09 50.80453 4.62471 14054 ft 379 kts 246°
2026-05-06 14:09 50.79403 4.58695 14745 ft 381 kts 245°
2026-05-06 14:09 50.78317 4.54859 15441 ft 383 kts 245°
2026-05-06 14:10 50.77218 4.51016 16122 ft 386 kts 245°
2026-05-06 14:10 50.76101 4.47134 16770 ft 388 kts 245°
2026-05-06 14:10 50.74976 4.43244 17388 ft 391 kts 244°
2026-05-06 14:10 50.73839 4.39323 17997 ft 394 kts 244°
2026-05-06 14:11 50.72695 4.35384 18600 ft 396 kts 244°
2026-05-06 14:11 50.71545 4.31429 19142 ft 400 kts 244°
2026-05-06 14:11 50.70381 4.27437 19589 ft 405 kts 244°
2026-05-06 14:11 50.69196 4.23374 20094 ft 409 kts 244°
2026-05-06 14:12 50.68003 4.19289 20615 ft 412 kts 244°
2026-05-06 14:12 50.66797 4.15171 21092 ft 415 kts 244°
2026-05-06 14:12 50.65581 4.11027 21508 ft 419 kts 244°
2026-05-06 14:12 50.64349 4.06832 21920 ft 423 kts 244°
2026-05-06 14:13 50.63107 4.02610 22356 ft 427 kts 244°
2026-05-06 14:13 50.61852 3.98349 22773 ft 430 kts 244°
2026-05-06 14:13 50.60587 3.94061 23125 ft 435 kts 244°
2026-05-06 14:13 50.59304 3.89726 23497 ft 439 kts 244°
2026-05-06 14:14 50.57808 3.85538 23853 ft 442 kts 231°
2026-05-06 14:14 50.55583 3.82221 24275 ft 442 kts 214°
2026-05-06 14:14 50.52863 3.79963 24688 ft 443 kts 203°
2026-05-06 14:14 50.50009 3.78082 25063 ft 446 kts 202°
2026-05-06 14:15 50.47131 3.76211 25379 ft 450 kts 202°
2026-05-06 14:15 50.44240 3.74304 25693 ft 453 kts 202°
2026-05-06 14:15 50.41332 3.72352 26033 ft 455 kts 203°
2026-05-06 14:15 50.38420 3.70375 26387 ft 457 kts 203°
2026-05-06 14:16 50.35505 3.68391 26707 ft 459 kts 203°
2026-05-06 14:16 50.32562 3.66392 26993 ft 461 kts 203°
2026-05-06 14:16 50.29614 3.64397 27289 ft 464 kts 202°
2026-05-06 14:16 50.26643 3.62390 27597 ft 465 kts 202°
2026-05-06 14:17 50.23674 3.60385 27969 ft 465 kts 202°
2026-05-06 14:17 50.20710 3.58386 28407 ft 463 kts 202°
2026-05-06 14:17 50.17762 3.56403 28851 ft 461 kts 202°
2026-05-06 14:17 50.14816 3.54427 29237 ft 460 kts 202°
2026-05-06 14:18 50.11876 3.52459 29577 ft 460 kts 202°
2026-05-06 14:18 50.08933 3.50492 29952 ft 460 kts 202°
2026-05-06 14:18 50.06005 3.48537 30356 ft 458 kts 202°
2026-05-06 14:18 50.03118 3.46612 30740 ft 456 kts 202°
2026-05-06 14:19 50.00205 3.44674 31084 ft 456 kts 202°
2026-05-06 14:19 49.97288 3.42732 31439 ft 455 kts 202°
2026-05-06 14:19 49.94391 3.40806 31819 ft 453 kts 202°
2026-05-06 14:19 49.91500 3.38886 32188 ft 451 kts 202°
2026-05-06 14:20 49.88620 3.36976 32537 ft 450 kts 202°
2026-05-06 14:20 49.85739 3.35066 32833 ft 450 kts 202°
2026-05-06 14:20 49.79938 3.31235 32907 ft 455 kts 202°
2026-05-06 14:21 49.74132 3.27393 32906 ft 451 kts 202°
2026-05-06 14:21 49.68400 3.23606 32909 ft 447 kts 202°
2026-05-06 14:22 49.62682 3.19837 32907 ft 446 kts 202°
2026-05-06 14:22 49.56968 3.16084 32914 ft 447 kts 202°
2026-05-06 14:23 49.51240 3.12330 32913 ft 448 kts 202°
2026-05-06 14:23 49.45707 3.07920 32917 ft 449 kts 213°
2026-05-06 14:24 49.40520 3.02548 32908 ft 451 kts 213°
2026-05-06 14:24 49.35321 2.97158 32913 ft 451 kts 213°
2026-05-06 14:25 49.30087 2.91829 32905 ft 452 kts 213°
2026-05-06 14:25 49.24834 2.86535 32906 ft 452 kts 212°
2026-05-06 14:26 49.19578 2.81253 32908 ft 452 kts 212°
2026-05-06 14:26 49.14318 2.75977 32914 ft 452 kts 212°
2026-05-06 14:27 49.09056 2.70714 32921 ft 452 kts 212°
2026-05-06 14:27 49.03791 2.65459 32914 ft 452 kts 212°
2026-05-06 14:28 48.98524 2.60214 32915 ft 452 kts 212°
2026-05-06 14:28 48.93261 2.54987 32918 ft 452 kts 212°
2026-05-06 14:29 48.87993 2.49768 32921 ft 452 kts 212°
2026-05-06 14:29 48.82734 2.44567 32927 ft 452 kts 212°
2026-05-06 14:30 48.77460 2.39364 32924 ft 452 kts 212°
2026-05-06 14:30 48.72187 2.34176 32918 ft 452 kts 212°
2026-05-06 14:31 48.66918 2.29002 32917 ft 452 kts 212°
2026-05-06 14:31 48.61635 2.23826 32915 ft 452 kts 212°
2026-05-06 14:32 48.56168 2.19192 32910 ft 451 kts 200°
2026-05-06 14:32 48.50124 2.16871 32921 ft 449 kts 190°
2026-05-06 14:33 48.45030 2.15336 32920 ft 449 kts 191°
2026-05-06 14:33 48.38896 2.13405 32914 ft 450 kts 191°
2026-05-06 14:34 48.32776 2.11436 32912 ft 450 kts 191°
2026-05-06 14:34 48.26577 2.10353 32933 ft 448 kts 177°
2026-05-06 14:35 48.20383 2.11620 33023 ft 452 kts 170°
2026-05-06 14:35 48.17260 2.12355 33202 ft 454 kts 171°
2026-05-06 14:35 48.14136 2.13038 33463 ft 454 kts 172°
2026-05-06 14:36 48.10982 2.13461 33713 ft 455 kts 176°
2026-05-06 14:36 48.07824 2.13662 33891 ft 457 kts 178°
2026-05-06 14:36 48.04630 2.13818 34013 ft 460 kts 178°
2026-05-06 14:36 48.01474 2.13961 34253 ft 460 kts 178°
2026-05-06 14:37 47.98278 2.14112 34585 ft 459 kts 178°
2026-05-06 14:37 47.95093 2.14271 34903 ft 457 kts 178°
2026-05-06 14:37 47.91921 2.14443 35253 ft 455 kts 178°
2026-05-06 14:37 47.88763 2.14624 35550 ft 453 kts 178°
2026-05-06 14:38 47.85608 2.14810 35709 ft 455 kts 178°
2026-05-06 14:38 47.82439 2.14997 35910 ft 456 kts 178°
2026-05-06 14:38 47.79277 2.15181 36185 ft 454 kts 178°
2026-05-06 14:38 47.76119 2.15367 36453 ft 454 kts 178°
2026-05-06 14:39 47.72966 2.15550 36700 ft 453 kts 178°
2026-05-06 14:39 47.69821 2.15731 36956 ft 450 kts 179°
2026-05-06 14:39 47.63610 2.16088 36935 ft 442 kts 179°
2026-05-06 14:40 47.57469 2.16439 36944 ft 441 kts 179°
2026-05-06 14:40 47.51326 2.16790 36944 ft 442 kts 179°
2026-05-06 14:41 47.45178 2.17141 36939 ft 442 kts 179°
2026-05-06 14:41 47.39028 2.17492 36941 ft 443 kts 179°
2026-05-06 14:42 47.32856 2.17843 36934 ft 443 kts 179°
2026-05-06 14:42 47.26691 2.18195 36916 ft 444 kts 179°
2026-05-06 14:43 47.20570 2.18541 36933 ft 443 kts 179°
2026-05-06 14:43 47.14401 2.18890 36926 ft 443 kts 179°
2026-05-06 14:44 47.08272 2.19762 36914 ft 444 kts 168°
2026-05-06 14:45 46.99596 2.24592 36929 ft 445 kts 159°
2026-05-06 14:45 46.93863 2.28032 36924 ft 445 kts 160°
2026-05-06 14:46 46.88117 2.31399 36931 ft 445 kts 160°
2026-05-06 14:46 46.82465 2.35091 36910 ft 447 kts 150°
2026-05-06 14:47 46.77260 2.40066 36909 ft 447 kts 148°
2026-05-06 14:47 46.72080 2.45107 36917 ft 447 kts 149°
2026-05-06 14:48 46.66889 2.50091 36916 ft 447 kts 149°
2026-05-06 14:48 46.61681 2.55037 36915 ft 447 kts 149°
2026-05-06 14:49 46.56468 2.59965 36910 ft 447 kts 149°
2026-05-06 14:49 46.51246 2.64891 36911 ft 448 kts 149°
2026-05-06 14:50 46.46020 2.69810 36901 ft 448 kts 149°
2026-05-06 14:50 46.40794 2.74719 36910 ft 448 kts 149°
2026-05-06 14:51 46.35560 2.79625 36897 ft 448 kts 149°
2026-05-06 14:51 46.30327 2.84519 36896 ft 448 kts 149°
2026-05-06 14:52 46.25128 2.89368 36897 ft 448 kts 149°
2026-05-06 14:52 46.19898 2.94236 36892 ft 447 kts 150°
2026-05-06 14:53 46.14663 2.99099 36901 ft 448 kts 150°
2026-05-06 14:53 46.09425 3.03952 36892 ft 447 kts 150°
2026-05-06 14:54 46.04186 3.08796 36885 ft 447 kts 150°
2026-05-06 14:54 45.98951 3.13626 36887 ft 447 kts 150°
2026-05-06 14:55 45.93373 3.17239 36894 ft 437 kts 169°
2026-05-06 14:55 45.87389 3.18060 36903 ft 431 kts 183°
2026-05-06 14:56 45.81393 3.17901 36888 ft 431 kts 184°
2026-05-06 14:56 45.75400 3.17761 36886 ft 431 kts 183°
2026-05-06 14:57 45.69405 3.17660 36888 ft 431 kts 183°
2026-05-06 14:57 45.63406 3.17580 36894 ft 431 kts 183°
2026-05-06 14:58 45.57401 3.17504 36887 ft 432 kts 183°
2026-05-06 14:58 45.51390 3.17425 36886 ft 432 kts 183°
2026-05-06 14:59 45.45376 3.17347 36885 ft 432 kts 183°
2026-05-06 14:59 45.39375 3.17268 36901 ft 432 kts 183°
2026-05-06 15:00 45.33365 3.17189 36894 ft 432 kts 183°
2026-05-06 15:00 45.27348 3.17109 36903 ft 432 kts 183°
2026-05-06 15:01 45.21333 3.17032 36898 ft 432 kts 184°
2026-05-06 15:01 45.15358 3.16954 36901 ft 432 kts 184°
2026-05-06 15:02 45.09309 3.16877 36915 ft 432 kts 184°
2026-05-06 15:02 45.03340 3.16797 36914 ft 432 kts 184°
2026-05-06 15:03 44.97337 3.16722 36925 ft 431 kts 184°
2026-05-06 15:03 44.91342 3.16640 36913 ft 430 kts 184°
2026-05-06 15:04 44.85359 3.16553 36932 ft 430 kts 184°
2026-05-06 15:04 44.79383 3.16465 36932 ft 429 kts 184°
2026-05-06 15:05 44.73415 3.16379 36921 ft 429 kts 184°
2026-05-06 15:05 44.67454 3.16295 36930 ft 428 kts 184°
2026-05-06 15:06 44.61503 3.16210 36930 ft 427 kts 184°
2026-05-06 15:06 44.55553 3.16238 36930 ft 428 kts 183°
2026-05-06 15:07 44.49604 3.16371 36942 ft 428 kts 183°
2026-05-06 15:07 44.43649 3.16494 36938 ft 428 kts 183°
2026-05-06 15:08 44.37699 3.16604 36936 ft 427 kts 183°
2026-05-06 15:08 44.31757 3.16704 36943 ft 427 kts 183°
2026-05-06 15:09 44.25813 3.16805 36933 ft 428 kts 183°
2026-05-06 15:09 44.19863 3.16907 36939 ft 428 kts 184°
2026-05-06 15:10 44.13910 3.17009 36938 ft 428 kts 184°
2026-05-06 15:10 44.07946 3.17083 36934 ft 427 kts 186°
2026-05-06 15:11 44.02045 3.16492 36940 ft 425 kts 189°
2026-05-06 15:11 43.96167 3.15692 36945 ft 424 kts 190°
2026-05-06 15:12 43.90293 3.14927 36939 ft 423 kts 190°
2026-05-06 15:12 43.84431 3.14207 36924 ft 422 kts 189°
2026-05-06 15:13 43.78623 3.13515 36930 ft 421 kts 189°
2026-05-06 15:13 43.72795 3.12824 36932 ft 420 kts 189°
2026-05-06 15:14 43.66979 3.12133 36931 ft 420 kts 189°
2026-05-06 15:14 43.61161 3.11444 36927 ft 419 kts 189°
2026-05-06 15:15 43.55358 3.10757 36913 ft 418 kts 189°
2026-05-06 15:15 43.49559 3.10073 36919 ft 418 kts 189°
2026-05-06 15:16 43.43754 3.09390 36912 ft 419 kts 190°
2026-05-06 15:16 43.37947 3.08707 36918 ft 419 kts 190°
2026-05-06 15:17 43.32146 3.08027 36922 ft 419 kts 190°
2026-05-06 15:17 43.26337 3.07348 36921 ft 419 kts 190°
2026-05-06 15:18 43.20523 3.06668 36916 ft 419 kts 190°
2026-05-06 15:18 43.14718 3.05990 36920 ft 419 kts 190°
2026-05-06 15:19 43.08903 3.05313 36909 ft 420 kts 190°
2026-05-06 15:19 43.03085 3.04638 36928 ft 419 kts 190°
2026-05-06 15:20 42.97273 3.03965 36912 ft 419 kts 190°
2026-05-06 15:20 42.91511 3.03297 36932 ft 418 kts 190°
2026-05-06 15:21 42.85712 3.02627 36934 ft 418 kts 190°
2026-05-06 15:21 42.79923 3.01960 36935 ft 417 kts 190°
2026-05-06 15:22 42.74134 3.01293 36935 ft 417 kts 190°
2026-05-06 15:22 42.68360 3.00631 36937 ft 416 kts 190°
2026-05-06 15:23 42.62586 2.99968 36934 ft 416 kts 190°
2026-05-06 15:23 42.57756 2.99415 36936 ft 416 kts 190°
2026-05-06 15:24 42.52028 2.98760 36938 ft 416 kts 190°
2026-05-06 15:24 42.46248 2.98319 36930 ft 420 kts 184°
2026-05-06 15:25 42.40396 2.98800 36935 ft 422 kts 182°
2026-05-06 15:25 42.34545 2.99356 36931 ft 422 kts 182°
2026-05-06 15:26 42.28692 2.99875 36922 ft 421 kts 182°
2026-05-06 15:26 42.22852 3.00363 36930 ft 420 kts 183°
2026-05-06 15:27 42.17019 3.00845 36921 ft 420 kts 183°
2026-05-06 15:27 42.11182 3.01315 36915 ft 420 kts 183°
2026-05-06 15:28 42.05342 3.01785 36921 ft 420 kts 183°
2026-05-06 15:28 41.99503 3.02259 36907 ft 420 kts 183°
2026-05-06 15:29 41.93666 3.02732 36929 ft 420 kts 183°
2026-05-06 15:29 41.87832 3.03205 36911 ft 420 kts 183°
2026-05-06 15:30 41.82005 3.03673 36922 ft 420 kts 183°
2026-05-06 15:30 41.76226 3.04139 36920 ft 419 kts 183°
2026-05-06 15:31 41.70392 3.04609 36924 ft 419 kts 183°
2026-05-06 15:31 41.64577 3.05076 36911 ft 418 kts 183°
2026-05-06 15:32 41.55862 3.05774 36918 ft 417 kts 183°
2026-05-06 15:32 41.50072 3.06237 36918 ft 417 kts 183°
2026-05-06 15:33 41.44285 3.06697 36912 ft 417 kts 183°
2026-05-06 15:33 41.38494 3.07157 36926 ft 416 kts 183°
2026-05-06 15:34 41.32714 3.07617 36923 ft 417 kts 183°
2026-05-06 15:34 41.26921 3.08076 36932 ft 417 kts 184°
2026-05-06 15:35 41.21125 3.08532 36908 ft 417 kts 184°
2026-05-06 15:35 41.15326 3.08989 36910 ft 418 kts 183°
2026-05-06 15:36 41.09507 3.09450 36927 ft 419 kts 183°
2026-05-06 15:36 41.03679 3.09911 36930 ft 420 kts 183°
2026-05-06 15:37 40.97834 3.10372 36912 ft 421 kts 183°
2026-05-06 15:37 40.91990 3.10829 36929 ft 421 kts 184°
2026-05-06 15:38 40.86145 3.11287 36923 ft 420 kts 184°
2026-05-06 15:38 40.80306 3.11744 36928 ft 420 kts 184°
2026-05-06 15:39 40.74464 3.12199 36935 ft 420 kts 184°
2026-05-06 15:39 40.68657 3.12652 36935 ft 420 kts 183°
2026-05-06 15:40 40.62823 3.13107 36938 ft 420 kts 184°
2026-05-06 15:40 40.56991 3.13558 36934 ft 420 kts 184°
2026-05-06 15:41 40.51162 3.14010 36936 ft 419 kts 184°
2026-05-06 15:41 40.45365 3.14026 36940 ft 414 kts 188°
2026-05-06 15:42 40.39606 3.13695 36931 ft 414 kts 189°
2026-05-06 15:42 40.33846 3.13378 36937 ft 415 kts 189°
2026-05-06 15:43 40.28076 3.13100 36935 ft 415 kts 188°
2026-05-06 15:43 40.22313 3.12836 36932 ft 415 kts 188°
2026-05-06 15:44 40.16535 3.12575 36936 ft 415 kts 188°
2026-05-06 15:44 40.10752 3.12314 36938 ft 416 kts 188°
2026-05-06 15:45 40.04968 3.12052 36936 ft 416 kts 188°
2026-05-06 15:45 39.99172 3.11792 36933 ft 417 kts 188°
2026-05-06 15:46 39.93372 3.11529 36935 ft 417 kts 189°
2026-05-06 15:46 39.87548 3.11498 36931 ft 420 kts 186°
2026-05-06 15:47 39.81700 3.11666 36937 ft 420 kts 186°
2026-05-06 15:47 39.75857 3.11823 36934 ft 420 kts 186°
2026-05-06 15:48 39.70015 3.11953 36935 ft 420 kts 186°
2026-05-06 15:48 39.64178 3.12070 36934 ft 420 kts 186°
2026-05-06 15:49 39.58330 3.12185 36933 ft 420 kts 186°
2026-05-06 15:49 39.52487 3.12301 36935 ft 420 kts 186°
2026-05-06 15:50 39.46650 3.12416 36934 ft 419 kts 186°
2026-05-06 15:50 39.40856 3.12530 36938 ft 419 kts 186°
2026-05-06 15:51 39.35013 3.12643 36932 ft 419 kts 186°
2026-05-06 15:51 39.29182 3.12760 36936 ft 419 kts 186°
2026-05-06 15:52 39.23346 3.12875 36935 ft 419 kts 186°
2026-05-06 15:52 39.17513 3.12988 36935 ft 419 kts 186°
2026-05-06 15:53 39.11691 3.13102 36935 ft 419 kts 186°
2026-05-06 15:53 39.05848 3.13231 36935 ft 419 kts 186°
2026-05-06 15:54 39.00014 3.13364 36938 ft 420 kts 186°
2026-05-06 15:54 38.94172 3.13490 36937 ft 420 kts 186°
2026-05-06 15:55 38.88320 3.13610 36847 ft 422 kts 186°
2026-05-06 15:55 38.85370 3.13668 36575 ft 425 kts 186°
2026-05-06 15:55 38.82416 3.13730 36331 ft 423 kts 186°
2026-05-06 15:56 38.79484 3.13794 36076 ft 421 kts 186°
2026-05-06 15:56 38.76547 3.13853 35834 ft 425 kts 186°
2026-05-06 15:56 38.73571 3.13911 35590 ft 429 kts 186°
2026-05-06 15:56 38.70583 3.13971 35345 ft 434 kts 186°
2026-05-06 15:57 38.67563 3.14034 35108 ft 437 kts 185°
2026-05-06 15:57 38.64518 3.14099 34859 ft 436 kts 185°
2026-05-06 15:57 38.61499 3.14164 34602 ft 432 kts 185°
2026-05-06 15:57 38.58510 3.14227 34349 ft 429 kts 185°
2026-05-06 15:58 38.55530 3.14286 34109 ft 431 kts 185°
2026-05-06 15:58 38.52527 3.14344 33863 ft 432 kts 185°
2026-05-06 15:58 38.49519 3.14402 33616 ft 433 kts 185°
2026-05-06 15:58 38.46509 3.14461 33368 ft 433 kts 185°
2026-05-06 15:59 38.43490 3.14521 33119 ft 434 kts 185°
2026-05-06 15:59 38.40510 3.14580 32874 ft 434 kts 185°
2026-05-06 15:59 38.37485 3.14640 32628 ft 435 kts 185°
2026-05-06 15:59 38.34462 3.14700 32377 ft 434 kts 185°
2026-05-06 16:00 38.31438 3.14759 32137 ft 435 kts 185°
2026-05-06 16:00 38.28415 3.14818 31880 ft 435 kts 185°
2026-05-06 16:00 38.25388 3.14871 31633 ft 436 kts 185°
2026-05-06 16:00 38.22353 3.14919 31385 ft 436 kts 185°
2026-05-06 16:01 38.19311 3.14968 31137 ft 437 kts 185°
2026-05-06 16:01 38.16273 3.15017 30351 ft 438 kts 185°
2026-05-06 16:01 38.13229 3.15066 29668 ft 436 kts 185°
2026-05-06 16:01 38.10233 3.14881 29116 ft 426 kts 193°
2026-05-06 16:02 38.07363 3.14152 28539 ft 419 kts 197°
2026-05-06 16:02 38.04522 3.13364 27961 ft 415 kts 197°
2026-05-06 16:02 38.01711 3.12602 27396 ft 412 kts 197°
2026-05-06 16:02 37.98913 3.11856 26837 ft 409 kts 197°
2026-05-06 16:03 37.96135 3.11123 26282 ft 406 kts 197°
2026-05-06 16:03 37.93381 3.10400 25731 ft 402 kts 197°
2026-05-06 16:03 37.90653 3.09685 25184 ft 399 kts 197°
2026-05-06 16:03 37.87946 3.08977 24636 ft 396 kts 196°
2026-05-06 16:04 37.85253 3.08273 24101 ft 394 kts 196°
2026-05-06 16:04 37.82581 3.07574 23563 ft 391 kts 196°
2026-05-06 16:04 37.79928 3.06881 23034 ft 388 kts 196°
2026-05-06 16:04 37.77288 3.06193 22495 ft 386 kts 196°
2026-05-06 16:05 37.74664 3.05509 21959 ft 383 kts 195°
2026-05-06 16:05 37.72065 3.04832 21426 ft 381 kts 195°
2026-05-06 16:05 37.69470 3.04156 20903 ft 379 kts 195°
2026-05-06 16:05 37.66895 3.03484 20375 ft 377 kts 195°
2026-05-06 16:06 37.64333 3.02817 19857 ft 375 kts 195°
2026-05-06 16:06 37.62224 3.02270 19435 ft 373 kts 195°
2026-05-06 16:06 37.59733 3.01622 18922 ft 371 kts 195°
2026-05-06 16:06 37.57208 3.00967 18404 ft 370 kts 195°
2026-05-06 16:07 37.54696 3.00315 17889 ft 368 kts 195°
2026-05-06 16:07 37.52190 2.99665 17375 ft 367 kts 194°
2026-05-06 16:07 37.49741 2.99032 16872 ft 365 kts 194°
2026-05-06 16:07 37.47224 2.98380 16360 ft 364 kts 194°
2026-05-06 16:08 37.44766 2.97745 15845 ft 362 kts 194°
2026-05-06 16:08 37.42303 2.97107 15338 ft 361 kts 194°
2026-05-06 16:08 37.39879 2.96481 14836 ft 359 kts 194°
2026-05-06 16:08 37.37439 2.95851 14331 ft 358 kts 194°
2026-05-06 16:09 37.35003 2.95222 13821 ft 356 kts 194°
2026-05-06 16:09 37.32577 2.94597 13320 ft 355 kts 194°
2026-05-06 16:09 37.30164 2.93975 12817 ft 354 kts 194°
2026-05-06 16:09 37.27752 2.93354 12311 ft 353 kts 194°
2026-05-06 16:10 37.25358 2.92738 11798 ft 349 kts 194°
2026-05-06 16:10 37.23021 2.92139 11262 ft 337 kts 193°
2026-05-06 16:10 37.20762 2.91561 10854 ft 324 kts 193°
2026-05-06 16:10 37.18618 2.91012 10703 ft 305 kts 193°
2026-05-06 16:11 37.16626 2.90350 10547 ft 289 kts 197°
2026-05-06 16:11 37.14672 2.89757 10432 ft 289 kts 198°
2026-05-06 16:11 37.12886 2.88650 10297 ft 286 kts 218°
2026-05-06 16:11 37.11415 2.86968 10217 ft 289 kts 226°
2026-05-06 16:12 37.10474 2.85767 10137 ft 293 kts 226°
2026-05-06 16:12 37.09068 2.83938 10020 ft 290 kts 227°
2026-05-06 16:12 37.07677 2.82119 9906 ft 288 kts 227°
2026-05-06 16:12 37.06298 2.80307 9678 ft 286 kts 227°
2026-05-06 16:13 37.04940 2.78521 9474 ft 282 kts 227°
2026-05-06 16:13 37.03586 2.76735 9268 ft 285 kts 227°
2026-05-06 16:13 37.02212 2.74918 9056 ft 289 kts 227°
2026-05-06 16:13 37.00833 2.73092 8851 ft 289 kts 227°
2026-05-06 16:14 36.99456 2.71268 8658 ft 288 kts 227°
2026-05-06 16:14 36.98084 2.69451 8469 ft 287 kts 227°
2026-05-06 16:14 36.96717 2.67641 8335 ft 285 kts 227°
2026-05-06 16:14 36.95252 2.65984 8182 ft 286 kts 212°
2026-05-06 16:15 36.93458 2.64875 8041 ft 291 kts 203°
2026-05-06 16:15 36.91573 2.63906 7822 ft 294 kts 202°
2026-05-06 16:15 36.89684 2.62960 7618 ft 290 kts 202°
2026-05-06 16:15 36.87826 2.62033 7378 ft 287 kts 202°
2026-05-06 16:16 36.85976 2.61115 7089 ft 285 kts 202°
2026-05-06 16:16 36.84217 2.60240 6901 ft 280 kts 202°
2026-05-06 16:16 36.82376 2.59325 6782 ft 282 kts 202°
2026-05-06 16:16 36.80561 2.58425 6722 ft 279 kts 202°
2026-05-06 16:17 36.78770 2.57530 6703 ft 274 kts 202°
2026-05-06 16:17 36.76964 2.56675 6444 ft 281 kts 196°
2026-05-06 16:17 36.75011 2.56402 6192 ft 286 kts 175°
2026-05-06 16:17 36.73114 2.57007 5945 ft 281 kts 154°
2026-05-06 16:18 36.71538 2.58399 5679 ft 277 kts 133°
2026-05-06 16:18 36.70513 2.60383 5423 ft 273 kts 107°
2026-05-06 16:18 36.70254 2.62696 5202 ft 268 kts 91°
2026-05-06 16:18 36.70208 2.64996 4934 ft 262 kts 90°
2026-05-06 16:19 36.70240 2.67195 4671 ft 253 kts 86°
2026-05-06 16:19 36.70333 2.69375 4408 ft 245 kts 88°
2026-05-06 16:19 36.70353 2.71443 4151 ft 239 kts 90°
2026-05-06 16:19 36.70326 2.73515 3894 ft 234 kts 91°
2026-05-06 16:20 36.70280 2.75490 3638 ft 229 kts 91°
2026-05-06 16:20 36.70227 2.77422 3525 ft 218 kts 91°
2026-05-06 16:20 36.70176 2.79299 3496 ft 211 kts 91°
2026-05-06 16:20 36.70127 2.81097 3502 ft 210 kts 91°
2026-05-06 16:21 36.70078 2.82910 3495 ft 210 kts 91°
2026-05-06 16:21 36.70029 2.84720 3484 ft 206 kts 91°
2026-05-06 16:21 36.69983 2.86453 3472 ft 195 kts 91°
2026-05-06 16:21 36.69938 2.88127 3485 ft 192 kts 91°
2026-05-06 16:22 36.69893 2.89784 3488 ft 191 kts 91°
2026-05-06 16:22 36.69850 2.91433 3500 ft 190 kts 91°
2026-05-06 16:22 36.69806 2.93075 3495 ft 189 kts 91°
2026-05-06 16:22 36.69765 2.94655 3484 ft 176 kts 91°
2026-05-06 16:23 36.69727 2.96152 3329 ft 172 kts 91°
2026-05-06 16:23 36.69689 2.97648 3119 ft 174 kts 91°
2026-05-06 16:23 36.69650 2.99139 2869 ft 169 kts 91°
2026-05-06 16:23 36.69612 3.00571 2664 ft 161 kts 91°
2026-05-06 16:24 36.69579 3.01926 2479 ft 149 kts 91°
2026-05-06 16:24 36.69547 3.03161 2292 ft 142 kts 91°
2026-05-06 16:24 36.69516 3.04392 2080 ft 141 kts 91°
2026-05-06 16:24 36.69486 3.05605 1882 ft 138 kts 90°
2026-05-06 16:25 36.69457 3.06788 1710 ft 137 kts 90°
2026-05-06 16:25 36.69427 3.07977 1522 ft 137 kts 89°
2026-05-06 16:25 36.69397 3.09157 1345 ft 137 kts 90°
2026-05-06 16:25 36.69369 3.10341 1166 ft 137 kts 90°
2026-05-06 16:26 36.69339 3.11522 986 ft 136 kts 90°
2026-05-06 16:26 36.69311 3.12700 802 ft 135 kts 89°
2026-05-06 16:26 36.69282 3.13873 620 ft 135 kts 90°
2026-05-06 16:26 36.69254 3.15050 449 ft 136 kts 90°
2026-05-06 16:27 36.69227 3.16225 263 ft 136 kts 90°
2026-05-06 16:27 36.69197 3.17400 95 ft 135 kts 90°
2026-05-06 16:27 36.69176 3.18465 73 ft 107 kts 91°
2026-05-06 16:27 36.69156 3.19212 75 ft 69 kts 92°
2026-05-06 16:28 36.69148 3.19645 62 ft 20 kts 86°
2026-05-06 16:28 36.69169 3.19773 68 ft 15 kts 71°
2026-05-06 16:28 36.69210 3.19888 67 ft 14 kts 63°
2026-05-06 16:28 36.69254 3.19994 70 ft 14 kts 62°
2026-05-06 16:29 36.69288 3.20098 65 ft 13 kts 75°
2026-05-06 16:29 36.69301 3.20206 64 ft 9 kts 89°
2026-05-06 16:29 36.69316 3.20275 60 ft 8 kts 46°
2026-05-06 16:29 36.69370 3.20288 64 ft 8 kts
2026-05-06 16:30 36.69424 3.20300 65 ft 8 kts 27°
2026-05-06 16:30 36.69445 3.20335 60 ft 8 kts 75°
2026-05-06 16:30 36.69445 3.20421 69 ft 7 kts 92°
2026-05-06 16:30 36.69443 3.20483 63 ft 7 kts 92°
2026-05-06 16:31 36.69442 3.20533 62 ft 4 kts 91°
2026-05-06 16:31 36.69441 3.20554 69 ft 2 kts 99°
2026-05-06 16:31 36.69436 3.20567 60 ft 2 kts 124°
2026-05-06 16:31 36.69429 3.20571 62 ft 1 kts 160°
2026-05-06 16:32 36.69423 3.20570 69 ft 1 kts 184°
2026-05-06 16:32 36.69418 3.20569 63 ft 1 kts 186°
2026-05-06 16:32 36.69413 3.20569 66 ft 1 kts 182°
2026-05-06 16:32 36.69408 3.20569 66 ft 1 kts 182°
2026-05-06 16:33 36.69404 3.20568 69 ft 1 kts 181°
2026-05-06 16:33 36.69398 3.20568 69 ft 1 kts 181°
2026-05-06 16:33 36.69394 3.20568 69 ft 0 kts 181°
2026-05-06 16:34 36.69383 3.20568 69 ft 1 kts 181°
2026-05-06 16:34 36.69381 3.20568 69 ft 0 kts 181°
2026-05-06 16:34 36.69379 3.20568 69 ft 0 kts 181°